Вернуться в каталог

DMSP 5D-2 F13 DEB

АктивенSSO
NORAD 42272·DEBRIS·🇺🇸 United States

Запущен Mar 24, 1995 с Vandenberg Space Force Base

Loading…

Ближайшие Пролёты (ближайшие 24 часа)

TLE

СвежийSource: Space-Track

Эпоха: Sep 13, 2026, 13:02 UTC

1 42272U 95015GN  26256.54307568  .00002558  00000-0  91517-3 0  9992
2 42272  98.8632 289.4769 0019462 300.4849  59.4413 14.34845875580367

Отслеживайте DMSP 5D-2 F13 DEB в реальном времени с AllMySat

Download on the App Store